Regional Weather Roundup
Issued by NWS Charleston, SC

Current Version | Previous Version | Graphics & Text | Print | Product List | Glossary On
Versions: 1 2 3 4 5 6 7 8 9 10 11 12 13 14 15 16 17 18 19 20 21 22 23 24 25 26 27 28 29 30 31 32 33 34 35 36 37 38 39 40 41 42 43 44 45 46 47 48 49 50
752 ASUS42 KCHS 170327 RWRCHS REGIONAL WEATHER ROUNDUP NATIONAL WEATHER SERVICE CHARLESTON SC 1100 PM EDT WED AUG 16 2017 NOTE: "FAIR" INDICATES FEW OR NO CLOUDS BELOW 12,000 FEET WITH NO SIGNIFICANT WEATHER AND/OR OBSTRUCTIONS TO VISIBILITY. NOT ALL STATIONS ARE QUALITY CONTROLLED. USE DATA WITH CAUTION... ESPECIALLY DEWPOINT OBSERVATIONS. SCZ027-030-031-034>040-042>050-170400- ...SOUTHEAST SOUTH CAROLINA... CITY SKY/WX TMP DP RH WIND PRES REMARKS N CHARLESTON PTCLDY 83 79 88 SW6 30.01S HX 94 WATERFRONT PRK N/A N/A N/A N/A CALM 29.86S JOHNS ISLAND FAIR 84 81 89 SW5 30.02S HX 98 PINOPOLIS N/A 82 79 89 VRB2 29.95R HX 93 MONCKS CORNER FAIR 77 77 100 CALM 30.02S SUMMERVILLE FAIR 81 79 94 CALM 30.03S BEAUFORT MCAS CLEAR 85 81 88 S7 30.02S HX 100 BEAUFORT ARPT FAIR 82 79 89 S6 30.02S HX 93 HILTON HEAD IS CLEAR 86 81 84 VRB7 30.04R HX 102 WALTERBORO CLEAR 81 79 94 CALM 30.03S ALLENDALE NOT AVBL ...SOUTHERN MIDLANDS AND PEE DEE... CITY SKY/WX TMP DP RH WIND PRES REMARKS GEORGETOWN FAIR 79 77 94 CALM 30.03S KINGSTREE FAIR 77 77 100 CALM 30.03R ORANGEBURG CLEAR 80 77 90 CALM 30.03R BARNWELL FAIR 82 77 83 CALM 30.04R HX 91 AIKEN FAIR 79 73 83 CALM 30.08S MANNING FAIR 79 77 94 N13 30.02S COLUMBIA PTCLDY 83 75 77 SW3 30.01S HX 90 SUMTER CLEAR 81 74 78 CALM 30.00R FLORENCE CLEAR 77 75 93 E5 30.03S MYRTLE BEACH NOT AVBL N MYRTLE BEACH CLOUDY 77 77 100 CALM 30.02S $$ GAZ063-065-086>088-099>101-113>116-118-119-134>141-150-170400- ...SOUTHEAST GEORGIA... CITY SKY/WX TMP DP RH WIND PRES REMARKS SAVANNAH ARPT PTCLDY 85 79 82 SW7 30.04R HX 98 HUNTER AAF CLEAR 85 78 81 S6 30.01R HX 96 FORT STEWART CLEAR 83 76 79 CALM 30.02R HX 90 STATESBORO CLEAR 82 74 77 CALM 30.04R SYLVANIA CLEAR 81 80 99 CALM 30.05R HX 91 CLAXTON FAIR 80 78 95 CALM 30.04S ...CSRA...CENTRAL AND FAR SOUTHEAST GEORGIA... CITY SKY/WX TMP DP RH WIND PRES REMARKS THOMSON CLEAR 79 77 92 CALM 30.11R AUGUSTA-BUSH CLEAR 85 76 74 SW5 30.02S HX 94 AUGUSTA-DANIEL CLEAR 87 72 60 CALM 30.05R HX 93 SWAINSBORO FAIR 81 75 83 CALM 30.07R VIDALIA CLEAR 81 75 83 CALM 30.06R EASTMAN FAIR 80 80 99 CALM 30.09R HAZLEHURST FAIR 83 68 62 CALM 30.05R ALMA CLEAR 80 77 90 CALM 30.05R WAYCROSS CLEAR 81 76 83 CALM 30.05S JESUP FAIR 82 75 78 CALM 30.05R BAXLEY FAIR 79 79 100 CALM 30.05R BRUNSWICK CLEAR 81 73 78 CALM 30.05S SAINT SIMONS CLEAR 86 80 82 S3 30.04R HX 101 $$ SCZ027-028-034-036>038-045-046-048>050-GAZ119-141-170400- ...LAKE AND SUPPLEMENTAL COASTAL OBSERVATIONS... STATION/POSITION TIME TEMP WIND PRES WAVE SWELL AIR SEA DIR/SP/G HT/PER HT/PER/DIR (UTC) (F) (DEG/KT/KT) (MB) (FT/S) (FT/S/D) WINYAH BAY 0245 81 290/ 2 1017.0R LAKE MURRAY 0250 85 CALM 1015.6R ACE BASIN NERRS 0245 84 CALM 1016.0S FORT PULASKI 0300 85 86 220/ 7/ 11 1017.3 SAPELO ISLAND 0300 84 CALM 1017.0 $$ ANZ835-935-AMZ111-154-330-350-352-354-370-450-454-472-170400- ...C-MAN AND BUOY OBSERVATIONS... STATION/POSITION TIME TEMP WIND PRES WAVE SWELL AIR SEA DIR/SP/G HT/PER HT/PER/DIR (UTC) (F) (DEG/KT/KT) (MB) (FT/S) (FT/S/D) BUOY 41004 0310 84 84 220/ 8/ 10 1016.2 BUOY 41008 0250 85 85 180/ 14/ 16 1016.8F 2/ 3 2/ 80/ 8 FOLLY BEACH CMAN 0300 85 230/ 8/ 12 1017.0F CAPERS NEARSHORE 0308 83 85 230/ 10/ 14 1016.3S FRIPP NEARSHORE 0308 86 220/ 14/ 17 1016.2F STATION/POSITION TIME TEMP WIND PRES WAVE SWELL AIR SEA DIR/SP/G HT/PER HT/PER/DIR (UTC) (F) (DEG/KT/KT) (MB) (FT/S) (FT/S/D) 5E ST. MARYS GA 0300 84 N/A 2/ 4 FRYING PAN BUOY 0310 84 84 CALM / 2 1016.7 BUOY 41025 0250 80 83 10/ 8/ 8 1016.4R 2/ 7 2/140/ 7 CAPE LOOKOUT NC 0300 81 90/ 3/ 3 1017.0R BUOY 41002 0250 84 84 240/ 12/ 14 1016.8R 4/ 6 2/240/ 6 BUOY 41010 0310 85 86 220/ 8/ 10 1018.4 ST AUGUSTINE FL 0300 80 83 230/ 5/ 7 1018.2R $$

USA.gov is the U.S. government's official web portal to all federal, state and local government web resources and services.